Starlink 11531

operational
NORAD ID: 62841 Int'l Des: 2025-019 Owner: SPXS Country: US Constellation: starlink
LEOCIRCULAR

About Starlink 11531

Description loading...

Live Position

Loading 3D Globe...

Upcoming Passes

Altitude History

Altitude vs Time

uPlot chart will show altitude changes over time

Two-Line Element Set

1 62841U 25019N 25348.19993553 .00237988 00000-0 17989-2 0 9997
2 62841 42.9973 101.4432 0000788 285.1492 74.9288 15.70928482 50432
Epoch: Dec 14, 2025 • Age: 16 hours

Current Status

Altitude 357.3 km
Velocity 7.70 km/s
Sub-Earth Point 35.06°N, 163.38°W
Launch Date Jan 27, 2025
Age 0.8 years
Type internet

Technical Details

Classification Payload
Mass 960.00 kg
Dry Mass 910.00 kg
Total Mass 960.00 kg
Length 0.30 m
Diameter 4.10 m
Span 29.00 m
Shape Box + pan
Manufacturer SPXS
Bus Type Starlink V2MD
Phase Status In Orbit
Owner/State SPXS/US

Large Constellations

Loading constellations...